Home   Weather   Binghamton   Past weeks

Flag for USA Past Weather in Binghamton, New York, USA — Yesterday and Last 2 Weeks

Now
16 °F

Clear.


Feels Like: 6 °F
Forecast: 13 / 29 °F
Wind: 7 mph from Southwest

Location: Binghamton Regional Airport

Current Time: Dec 11, 2016 at 5:12:25 am

Latest Report: Dec 11, 2016 at 4:53 am


Visibility: 10 mi

Pressure: 30.44 "Hg

Humidity: 84%

Dew Point: 12 °F

Location of BinghamtonLocation

Past Weather in Binghamton — Graph

°F

Binghamton Temperature Yesterday

Maximum temperature yesterday: 23 °F (at 12:53 pm)
Minimum temperature yesterday: 15 °F (at 9:53 pm)
Average temperature yesterday: 19 °F

High & Low Weather Summary for the Past Weeks

 TemperatureHumidityPressure
High51 °F (Nov 29, 12:53 pm)100% (Nov 26, 3:53 am)30.44 "Hg (Nov 26, 3:53 am)
Low15 °F (Dec 10, 9:53 pm)53% (Nov 28, 1:53 pm)29.41 "Hg (Dec 1, 12:53 am)
Average34 °F84%29.99 "Hg
* Reported Nov 26 3:53 am — Dec 11 3:53 am, Binghamton, Weather by CustomWeather, © 2016

Note: Actual official high and low records may vary slightly from our data, if they occured in-between our weather recording intervals... More about our weather records

Advertising

Binghamton Weather History for the Previous 24 Hours

Scroll right to see more
 ConditionsComfort  
Time TempWeatherWind HumidityBarometerVisibility
3:53 am
Sun, Dec 11
16 °FPassing clouds.6 mph87%30.44 "Hg10 mi
2:53 am16 °FOvercast.5 mph87%30.43 "Hg10 mi
1:53 am16 °FPassing clouds.5 mph92%30.42 "Hg10 mi
12:53 am16 °FMostly cloudy.8 mph87%30.42 "Hg10 mi
11:53 pm
Sat, Dec 10
15 °FPartly cloudy.10 mph87%30.42 "Hg10 mi
10:53 pm15 °FClear.9 mph91%30.41 "Hg10 mi
9:53 pm15 °FClear.9 mph91%30.40 "Hg10 mi
8:53 pm17 °FClear.9 mph92%30.39 "Hg10 mi
8:01 pm18 °FPassing clouds.6 mph92%30.31 "Hg2 mi
6:53 pm19 °FPassing clouds.8 mph92%30.39 "Hg2 mi
6:02 pm20 °FLight snow. Ice fog.3 mph96%30.30 "Hg2 mi
4:53 pm21 °FLight snow. Ice fog.3 mph96%30.35 "Hg1 mi
3:53 pm22 °FMostly cloudy.5 mph85%30.34 "Hg10 mi
2:53 pm22 °FLight snow. Ice fog.3 mph85%30.32 "Hg2 mi
1:53 pm23 °FLight snow. Mostly cloudy.7 mph78%30.31 "Hg1 mi
12:53 pm23 °FLight snow. Cloudy.No wind81%30.31 "Hg2 mi
12:03 pm22 °FCloudy.5 mph82%30.25 "Hg9 mi
Weather by CustomWeather, © 2016

See weather overviewHow to use our weather pages